LINCON Weather Reports


Display with metric or nautical units.
time (UTC)temp
F
wind
direction
speed
MPH
gust
MPH
rain 1hr
in
rain 24hr
in
rain mn
in
humidity
%
barometer
mb
20260504151009 56 0 0.0 0.0 0.00 0.00 0.00 96 1010.1
20260504150509 56 0 0.0 2.0 0.00 0.00 0.00 96 1010.1
20260504141009 55 0 0.0 0.0 0.00 0.00 0.00 95 1009.5
20260504140509 55 0 0.0 2.0 0.00 0.00 0.00 95 1009.4
20260504130509 55 198 0.0 5.0 0.00 0.00 0.00 95 1008.9
20260504110509 55 0 0.0 0.0 0.00 0.00 0.00 96 1008.9
20260504100509 55 0 0.0 0.0 0.00 0.00 0.00 96 1008.7
20260504081509 56 0 0.0 0.0 0.00 0.00 0.00 95 1008.6
20260504081009 56 0 0.0 0.0 0.00 0.00 0.00 94 1008.5
20260504080509 56 0 0.0 0.0 0.00 0.00 0.00 94 1008.4
20260504050509 56 184 0.0 7.0 0.00 0.00 0.00 91 1007.7
20260504050009 56 169 0.0 2.0 0.00 0.00 0.00 91 1007.7
20260504045509 56 0 0.0 5.0 0.00 0.00 0.00 91 1007.7
20260504045009 56 169 0.0 5.0 0.00 0.00 0.00 91 1007.6
20260504044509 56 240 0.0 5.0 0.00 0.00 0.00 91 1007.5
20260504044009 56 201 0.0 5.0 0.00 0.00 0.00 92 1007.5
20260504043508 56 0 0.0 5.0 0.00 0.00 0.00 91 1007.4
20260504043009 56 0 0.0 5.0 0.00 0.00 0.00 91 1007.3
20260504042509 56 205 0.0 7.0 0.00 0.00 0.00 91 1007.2
20260504042009 56 225 0.0 7.0 0.00 0.00 0.00 91 1007.1
20260504041509 56 0 0.0 7.0 0.00 0.00 0.00 91 1006.9
20260504041009 56 263 0.0 11.0 0.00 0.00 0.00 90 1006.8
20260504040509 56 0 1.0 11.0 0.00 0.00 0.00 90 1006.8
20260504040009 56 252 0.0 11.0 0.00 0.00 0.00 90 1006.7
20260504035509 56 0 2.0 7.0 0.00 0.00 0.00 90 1006.6
20260504035009 56 0 0.0 7.0 0.00 0.00 0.00 90 1006.6
20260504034509 57 252 0.0 7.0 0.00 0.00 0.00 90 1006.5
20260504034009 57 193 0.0 5.0 0.00 0.00 0.00 89 1006.5
20260504033509 57 170 0.0 9.0 0.00 0.00 0.00 89 1006.4
20260504033009 57 226 0.0 9.0 0.00 0.00 0.00 89 1006.4
20260504032509 57 236 4.0 9.0 0.00 0.00 0.00 89 1006.2
20260504032009 56 140 0.0 6.0 0.00 0.00 0.00 88 1006.1
20260504031509 57 268 1.0 6.0 0.00 0.00 0.00 88 1006.1
20260504031009 57 268 0.0 9.0 0.00 0.00 0.00 87 1006.0
20260504030511 57 270 0.0 9.0 0.00 0.00 0.00 87 1005.9
20260504030009 57 196 1.0 9.0 0.00 0.00 0.00 86 1005.9
20260504025509 57 214 0.0 8.0 0.00 0.00 0.00 86 1005.9
20260504025009 57 217 0.0 8.0 0.00 0.00 0.00 86 1005.8
20260504024510 57 278 0.0 8.0 0.00 0.00 0.00 85 1005.8
20260504024010 57 0 0.0 0.0 0.00 0.00 0.00 85 1005.7
20260504023509 58 0 0.0 4.0 0.00 0.00 0.00 84 1005.7
20260504023009 57 0 0.0 4.0 0.00 0.00 0.00 84 1005.7
20260504022509 58 205 0.0 4.0 0.00 0.00 0.00 83 1005.6
20260504022009 58 0 0.0 0.0 0.00 0.00 0.00 82 1005.6
20260504021509 58 0 0.0 6.0 0.00 0.00 0.00 82 1005.5
20260504021009 58 0 0.0 6.0 0.00 0.00 0.00 82 1005.5
20260504020509 58 187 0.0 6.0 0.00 0.00 0.00 82 1005.5
20260504020009 58 219 0.0 5.0 0.00 0.00 0.00 81 1005.4
20260504015509 59 212 0.0 5.0 0.00 0.00 0.00 81 1005.4
20260504015011 59 0 0.0 0.0 0.00 0.00 0.00 80 1005.4
20260504014509 59 0 0.0 0.0 0.00 0.00 0.00 79 1005.3
20260504014010 59 0 0.0 7.0 0.00 0.00 0.00 78 1005.3
20260504013509 60 211 0.0 7.0 0.00 0.00 0.00 77 1005.3
20260504013009 60 194 1.0 7.0 0.00 0.00 0.00 75 1005.3
20260504012509 61 264 0.0 7.0 0.00 0.00 0.00 74 1005.2
20260504012009 62 0 0.0 7.0 0.00 0.00 0.00 74 1005.2
20260504011512 62 268 0.0 10.0 0.00 0.00 0.00 74 1005.2
20260504011009 62 196 0.0 10.0 0.00 0.00 0.00 72 1005.1
20260504010509 63 211 5.0 10.0 0.00 0.00 0.00 71 1005.2
20260504010009 64 249 1.0 13.0 0.00 0.00 0.00 71 1005.1
20260504005509 65 246 4.0 13.0 0.00 0.00 0.00 69 1005.1
20260504005009 65 274 5.0 13.0 0.00 0.00 0.00 69 1005.1
20260504004509 66 275 7.0 12.0 0.00 0.00 0.00 68 1005.1
20260504004010 66 246 7.0 12.0 0.00 0.00 0.00 68 1005.1
20260504003509 66 301 6.0 12.0 0.00 0.00 0.00 67 1005.0
20260504003009 66 249 7.0 9.0 0.00 0.00 0.00 67 1004.9
20260504002509 67 256 6.0 9.0 0.00 0.00 0.00 66 1004.9
20260504002009 67 243 6.0 9.0 0.00 0.00 0.00 66 1004.8
20260504001509 67 233 4.0 14.0 0.00 0.00 0.00 66 1004.8
20260504001009 67 264 6.0 14.0 0.00 0.00 0.00 64 1004.7
20260504000509 68 250 7.0 14.0 0.00 0.00 0.00 63 1004.7
20260504000009 68 291 7.0 13.0 0.00 0.00 0.00 62 1004.7
20260503235509 69 266 9.0 13.0 0.00 0.00 0.00 60 1004.6
20260503235009 71 260 9.0 13.0 0.00 0.00 0.00 57 1004.6
20260503234509 72 305 7.0 9.0 0.00 0.00 0.00 56 1004.6
20260503234009 73 256 7.0 9.0 0.00 0.00 0.00 55 1004.6
20260503233509 73 306 7.0 8.0 0.00 0.00 0.00 54 1004.6
20260503233008 74 284 5.0 8.0 0.00 0.00 0.00 51 1004.6
20260503232509 75 289 4.0 7.0 0.00 0.00 0.00 50 1004.6
20260503232009 76 243 4.0 7.0 0.00 0.00 0.00 48 1004.6
20260503231510 77 291 5.0 7.0 0.00 0.00 0.00 46 1004.6
20260503231009 78 259 2.0 5.0 0.00 0.00 0.00 45 1004.7
20260503230508 78 0 2.0 4.0 0.00 0.00 0.00 45 1004.8
20260503230008 78 278 0.0 4.0 0.00 0.00 0.00 44 1004.9
20260503225508 78 0 0.0 4.0 0.00 0.00 0.00 44 1005.0
20260503225008 79 338 0.0 5.0 0.00 0.00 0.00 44 1005.1
20260503224509 79 294 3.0 5.0 0.00 0.00 0.00 43 1005.1
20260503224009 79 329 1.0 5.0 0.00 0.00 0.00 43 1005.3
20260503223509 79 294 0.0 3.0 0.00 0.00 0.00 43 1005.2
20260503223008 79 0 0.0 0.0 0.00 0.00 0.00 43 1005.2
20260503222509 79 0 0.0 5.0 0.00 0.00 0.00 44 1005.3
20260503222009 79 302 0.0 5.0 0.00 0.00 0.00 44 1005.4
20260503221510 79 329 0.0 5.0 0.00 0.00 0.00 45 1005.4
20260503221008 78 320 1.0 4.0 0.00 0.00 0.00 46 1005.5
20260503220508 78 289 1.0 4.0 0.00 0.00 0.00 46 1005.5
20260503220008 77 0 0.0 0.0 0.00 0.00 0.00 47 1005.6
20260503215624 77 0 0.0 0.0 0.00 0.00 0.00 47 1005.6
20260503215508 77 0 0.0 0.0 0.00 0.00 0.00 47 1005.6
20260503215008 77 0 0.0 0.0 0.00 0.00 0.00 48 1005.7
20260503214509 78 0 0.0 0.0 0.00 0.00 0.00 46 1005.8
20260503214008 78 0 0.0 5.0 0.00 0.00 0.00 46 1005.8
20260503213508 79 287 0.0 5.0 0.00 0.00 0.00 45 1005.9
20260503213008 79 302 2.0 5.0 0.00 0.00 0.00 44 1005.9
20260503212508 80 0 0.0 3.0 0.00 0.00 0.00 46 1005.9
20260503212008 80 285 0.0 5.0 0.00 0.00 0.00 46 1005.9
20260503211508 80 302 0.0 5.0 0.00 0.00 0.00 44 1005.9
20260503211008 80 282 0.0 5.0 0.00 0.00 0.00 44 1006.0
20260503210509 80 0 0.0 0.0 0.00 0.00 0.00 45 1005.9
20260503210008 80 0 0.0 0.0 0.00 0.00 0.00 45 1006.0
20260503205508 80 0 0.0 5.0 0.00 0.00 0.00 46 1006.0
20260503205008 80 0 0.0 5.0 0.00 0.00 0.00 46 1006.0
20260503204509 80 0 0.0 5.0 0.00 0.00 0.00 46 1006.0
20260503204008 80 327 0.0 7.0 0.00 0.00 0.00 46 1006.0
20260503203509 80 324 3.0 7.0 0.00 0.00 0.00 46 1006.0
20260503203009 80 347 4.0 7.0 0.00 0.00 0.00 46 1006.1
20260503202510 80 337 2.0 8.0 0.00 0.00 0.00 46 1006.1
20260503202009 80 330 0.0 8.0 0.00 0.00 0.00 45 1006.1
20260503201509 80 330 6.0 8.0 0.00 0.00 0.00 45 1006.1
20260503201010 81 333 0.0 6.0 0.00 0.00 0.00 44 1006.1
20260503200509 81 316 0.0 6.0 0.00 0.00 0.00 43 1006.1
20260503200009 81 284 0.0 6.0 0.00 0.00 0.00 42 1006.2
20260503195508 81 291 3.0 6.0 0.00 0.00 0.00 41 1006.4
20260503195008 82 0 0.0 3.0 0.00 0.00 0.00 41 1006.2
20260503194508 82 338 0.0 3.0 0.00 0.00 0.00 41 1006.4
20260503194008 82 0 0.0 5.0 0.00 0.00 0.00 41 1006.2
20260503193508 82 331 0.0 5.0 0.00 0.00 0.00 41 1006.4
20260503193009 82 336 0.0 5.0 0.00 0.00 0.00 41 1006.4
20260503192508 82 0 0.0 5.0 0.00 0.00 0.00 41 1006.5
20260503192008 82 303 0.0 5.0 0.00 0.00 0.00 42 1006.5
20260503191509 81 280 0.0 5.0 0.00 0.00 0.00 41 1006.6
20260503191009 81 288 0.0 4.0 0.00 0.00 0.00 42 1006.5
20260503190509 81 0 0.0 4.0 0.00 0.00 0.00 42 1006.5
20260503190009 81 0 0.0 4.0 0.00 0.00 0.00 42 1006.6
20260503185511 81 280 0.0 4.0 0.00 0.00 0.00 42 1006.7
20260503185008 81 275 1.0 4.0 0.00 0.00 0.00 43 1006.6
20260503184508 80 0 0.0 4.0 0.00 0.00 0.00 43 1006.6
20260503184009 81 299 0.0 4.0 0.00 0.00 0.00 41 1006.7
20260503183508 81 232 1.0 4.0 0.00 0.00 0.00 42 1006.7
20260503183008 82 0 0.0 0.0 0.00 0.00 0.00 42 1006.6
20260503182509 82 0 0.0 0.0 0.00 0.00 0.00 43 1006.7
20260503182008 82 0 0.0 0.0 0.00 0.00 0.00 43 1006.6
20260503181508 82 0 0.0 0.0 0.00 0.00 0.00 43 1006.6
20260503181008 81 0 0.0 0.0 0.00 0.00 0.00 43 1006.7
20260503180508 81 0 0.0 0.0 0.00 0.00 0.00 43 1006.7
20260503180008 81 0 0.0 0.0 0.00 0.00 0.00 43 1006.6
20260503175508 80 0 0.0 0.0 0.00 0.00 0.00 44 1006.6
20260503175008 81 0 0.0 0.0 0.00 0.00 0.00 43 1006.6
20260503174509 81 0 0.0 0.0 0.00 0.00 0.00 43 1006.6
20260503174008 81 0 0.0 0.0 0.00 0.00 0.00 45 1006.6
20260503173508 81 0 0.0 0.0 0.00 0.00 0.00 45 1006.6
20260503173009 81 0 0.0 0.0 0.00 0.00 0.00 45 1006.7
20260503172508 81 0 0.0 0.0 0.00 0.00 0.00 45 1006.6
20260503172008 81 0 0.0 0.0 0.00 0.00 0.00 46 1006.6
20260503171508 81 0 0.0 0.0 0.00 0.00 0.00 46 1006.9
20260503171008 80 0 0.0 0.0 0.00 0.00 0.00 47 1006.9
20260503170508 80 0 0.0 0.0 0.00 0.00 0.00 47 1006.9